[[{"header":{"parameterUnit":"m.s-1","parameterCategory":1,"la1":30.2991,"la2":30.254,"lo1":-89.0895,"lo2":-89.0444,"dy":0.0017,"dx":0.0017,"nx":28,"ny":28,"refTime":"2023-09-30T03:00:00:Z","depth":0,"parameterNumber":2,"parameterNumberName":"U-component_of_WINDS"},"data":[0,0,0,0,0,0,0,0,0,0,0,0,0,0,0,0,0,0,0,0,0,0,0,0,0,0,0,0,0,0,0,0,0,0,0,0,0,0,0,0,0,0,0,0,0,0,0,0,0,0,0,0,0,0,0,0,0,0,-5.7902,-5.7902,0,-5.7891,-5.7891,-5.789,-5.7749,-5.7745,-5.7742,-5.7739,-5.7729,-5.7732,-5.7735,0,0,0,0,0,0,0,0,0,0,0,0,0,-5.7803,-5.7806,-5.7902,-5.7902,-5.7901,-5.7891,-5.7891,-5.789,-5.775,-5.7745,-5.7741,-5.7737,-5.7728,-5.7732,-5.7735,0,0,0,0,0,0,0,0,0,0,0,0,0,-5.7825,-5.7807,-5.7902,-5.783,-5.7823,-5.7891,-5.7891,-5.789,-5.7751,-5.7745,-5.774,-5.7735,-5.7727,-5.7731,-5.7736,-5.7872,0,0,-5.775,-5.7752,0,0,0,0,0,0,0,0,-5.7824,-5.7828,-5.7841,-5.7835,-5.7828,-5.7816,-5.7852,-5.7884,-5.7752,-5.7778,-5.7738,-5.7732,-5.7762,-5.7764,-5.7773,-5.7871,-5.7871,-5.775,-5.7753,-5.7755,-5.7756,0,0,0,0,0,0,0,-5.7822,-5.7828,-5.7897,-5.7841,-5.7833,-5.7799,-5.7796,-5.7858,-5.7801,-5.7776,-5.7765,-5.7766,-5.7758,-5.7769,-5.7772,-5.7871,-5.775,-5.7754,-5.7757,-5.7759,-5.8082,-5.8088,0,0,0,0,0,0,-5.783,-5.7828,-5.7898,-5.7897,-5.7812,-5.7805,-5.7802,-5.7825,-5.7799,-5.779,-5.777,-5.7759,-5.7764,-5.7767,-5.7771,-5.793,-5.7755,-5.7759,-5.7762,-5.8076,-5.8083,-5.809,0,0,0,0,0,0,-5.7829,-5.7838,-5.7898,-5.786,-5.7865,-5.7812,-5.784,-5.7828,-5.7839,-5.7796,-5.7785,-5.7793,-5.776,-5.7765,-5.7848,-5.7928,-5.7762,-5.7766,-5.8069,-5.8078,-5.8087,-5.8249,0,0,0,0,0,0,-5.7827,-5.7838,-5.7889,-5.7862,-5.7867,-5.7975,-5.7844,-5.7831,-5.7847,-5.7832,-5.7814,-5.7805,-5.7756,-5.7842,-5.7853,-5.7931,-5.7769,-5.8062,-5.8073,-5.8084,-5.8236,-5.8262,-5.8284,0,0,0,0,0,-5.7824,-5.7935,-5.7892,-5.7901,-5.7929,-5.798,-5.7983,-5.7924,-5.7854,-5.7905,-5.7877,-5.7806,-5.7918,-5.7852,-5.7863,-5.7944,-5.8057,-5.807,-5.8083,-5.8226,-5.8257,-5.8284,0,0,0,0,0,0,-5.7972,-5.793,-5.7882,-5.7987,-5.7988,-5.7956,-5.8018,-5.7959,-5.7979,-5.7965,-5.7891,-5.7888,-5.7983,-5.7971,-5.7899,-5.8075,-5.7975,-5.7991,-5.808,-5.8109,-5.8133,-5.8134,-5.7773,0,0,0,0,0,-5.8018,-5.8062,-5.8022,-5.8119,-5.8122,-5.8071,-5.809,-5.8045,-5.8043,-5.8042,-5.8021,-5.8022,-5.8058,-5.8082,-5.8112,-5.8234,-5.8229,-5.8295,-5.8319,-5.8339,-5.8354,-5.842,-5.8449,-5.8133,-5.8132,-5.8132,0,0,-5.8111,-5.8093,-5.8126,-5.8149,-5.8144,-5.8192,-5.8072,-5.8127,-5.8163,-5.8051,-5.8129,-5.8113,-5.811,-5.8214,-5.8258,-5.8207,-5.8441,-5.8356,-5.8372,-5.8376,-5.8436,-5.8466,-5.8493,-5.8141,-5.814,-5.8138,0,0,-5.8307,-5.8297,-5.8378,-5.8376,-5.837,-5.8335,-5.8355,-5.8332,-5.8318,-5.8394,-5.8312,-5.8354,-5.8416,-5.8418,-5.8427,-5.8626,-5.8562,-5.8637,-5.8763,-5.8828,-5.8853,-5.8875,-5.8948,-5.8975,-5.8652,-5.8653,-5.8653,0,-5.8424,-5.8493,-5.8427,-5.8489,-5.8502,-5.8403,-5.8485,-5.8487,-5.8492,-5.8504,-5.8446,-5.8523,-5.8514,-5.8618,-5.8667,-5.8677,-5.8698,-5.864,-5.8855,-5.8876,-5.8895,-5.8964,-5.8992,-5.8662,-5.8661,-5.866,-5.8659,0,-5.8638,-5.8688,-5.8754,-5.8761,-5.8782,-5.8854,-5.88,-5.8829,-5.8782,-5.8754,-5.8835,-5.8821,-5.8847,-5.8868,-5.8823,-5.8967,-5.8935,-5.8868,-5.8765,-5.8936,-5.9,-5.9025,-5.8676,-5.8672,-5.8669,-5.8667,0,0,-5.8927,-5.8898,-5.8924,-5.8927,-5.8914,-5.8952,-5.902,-5.9046,-5.9073,-5.908,-5.9137,-5.9193,-5.913,-5.9141,-5.9095,-5.9152,-5.9313,-5.9077,-5.9076,-5.9123,-5.9473,-5.9526,-5.9557,-5.927,-5.9275,-5.9279,-5.9474,0,-5.9117,-5.9231,-5.9174,-5.9296,-5.9342,-5.925,-5.9309,-5.9309,-5.9285,-5.9321,-5.9294,-5.9336,-5.925,-5.9256,-5.9308,-5.9283,-5.9383,-5.9267,-5.9324,-5.9327,-5.9329,-5.959,-5.9644,-5.983,-5.9498,-5.9502,-5.9505,0,-5.9353,-5.9371,-5.9498,-5.9479,-5.9496,-5.9551,-5.9571,-5.9606,-5.9605,-5.9583,-5.9597,-5.9538,-5.9605,-5.9503,-5.9596,-5.9519,-5.9539,-5.953,-5.9536,-5.954,-5.9427,-5.9602,-5.9887,-5.9916,-5.9543,-5.954,-5.9538,0,-5.9554,-5.9609,-5.9692,-5.9698,-5.9677,-5.9718,-5.9712,-5.9705,-5.9725,-5.9743,-5.9755,-5.9781,-5.9796,-5.9818,-5.9768,-5.9698,-5.9869,-5.9762,-5.9854,-5.9856,-5.9895,-5.9894,-6.0189,-5.9906,-5.9906,-5.9905,-5.9905,0,-5.9772,-5.9854,-5.9782,-5.9834,-5.9923,-5.9858,-5.9949,-5.9932,-5.9927,-5.9975,-5.9896,-5.9943,-5.9874,-5.9915,-5.9877,-5.996,-5.9967,-5.9953,-5.9942,-5.9961,-5.9963,-5.9974,-5.996,-5.9912,-5.9911,-5.9909,-5.9908,0,-6.0011,-5.9966,-6.0051,-6.0025,-6.0021,-6.0088,-6.0066,-6.0114,-6.0084,-6.0146,-6.0157,-6.0112,-6.0156,-6.0109,-6.0149,-6.0123,-6.0237,-6.0206,-6.0238,-6.023,-6.0325,-6.0318,-6.0639,-6.0678,-6.0369,-6.0372,-6.0375,0,-6.0154,-6.0215,-6.0196,-6.0222,-6.022,-6.0263,-6.0284,-6.0222,-6.0247,-6.0251,-6.0299,-6.0336,-6.0362,-6.0437,-6.0409,-6.044,-6.041,-6.0521,-6.0414,-6.0432,-6.0414,-6.0412,-6.0418,-6.0543,-6.0546,-6.0549,-6.0552,0,-6.0414,-6.0389,-6.042,-6.0446,-6.0472,-6.0489,-6.05,-6.0526,-6.0463,-6.0494,-6.0538,-6.0559,-6.0601,-6.0639,-6.0663,-6.0656,-6.0596,-6.0586,-6.0609,-6.0629,-6.0646,-6.064,-6.0298,-6.0579,-6.0576,-6.0574,-6.0572,-6.0571,-6.061,-6.066,-6.0655,-6.0694,-6.0696,-6.0708,-6.0752,-6.0729,-6.0765,-6.0794,-6.0755,-6.0811,-6.0809,-6.0834,-6.0836,-6.0879,-6.0832,-6.0865,-6.0874,-6.0884,-6.0899,-6.0638,-6.0883,-6.0882,-6.0881,-6.088,-6.088,0,-6.0867,-6.0859,-6.0895,-6.0914,-6.0945,-6.0883,-6.0893,-6.0923,-6.0972,-6.0976,-6.1004,-6.1056,-6.1094,-6.1069,-6.1102,-6.1141,-6.1114,-6.1152,-6.1149,-6.1149,-6.0938,-6.0915,-6.1173,-6.1173,-6.1173,-6.1173,-6.1173,-6.1173,-6.1004,-6.1087,-6.1062,-6.1146,-6.1138,-6.1191,-6.1202,-6.1214,-6.1217,-6.1278,-6.1309,-6.1292,-6.1286,-6.1317,-6.135,-6.1342,-6.1358,-6.1407,-6.1389,-6.1192,-6.1164,-6.1136,-6.1115,-6.141,-6.1411,-6.1597,-6.1598,-6.16]},{"header":{"parameterUnit":"m.s-1","parameterCategory":1,"la1":30.2991,"la2":30.254,"lo1":-89.0895,"lo2":-89.0444,"dy":0.0017,"dx":0.0017,"nx":28,"ny":28,"refTime":"2023-09-30T03:00:00:Z","depth":0,"parameterNumber":3,"parameterNumberName":"V-component_of_WINDS"},"data":[0,0,0,0,0,0,0,0,0,0,0,0,0,0,0,0,0,0,0,0,0,0,0,0,0,0,0,0,0,0,0,0,0,0,0,0,0,0,0,0,0,0,0,0,0,0,0,0,0,0,0,0,0,0,0,0,0,0,0.305,0.3049,0,0.301,0.301,0.301,0.3033,0.3034,0.3035,0.3036,0.2989,0.2987,0.2985,0,0,0,0,0,0,0,0,0,0,0,0,0,0.314,0.3138,0.305,0.3049,0.3049,0.3011,0.301,0.3009,0.3033,0.3034,0.3035,0.3037,0.299,0.2987,0.2985,0,0,0,0,0,0,0,0,0,0,0,0,0,0.3101,0.3138,0.305,0.3056,0.3056,0.3011,0.301,0.3009,0.3032,0.3034,0.3036,0.3037,0.2991,0.2988,0.2984,0.2929,0,0,0.2974,0.2972,0,0,0,0,0,0,0,0,0.3103,0.3097,0.3056,0.3056,0.3056,0.3029,0.3025,0.2982,0.3032,0.3041,0.3036,0.3038,0.3001,0.2996,0.2985,0.2926,0.2924,0.2973,0.2971,0.297,0.2969,0,0,0,0,0,0,0,0.3106,0.3099,0.3034,0.3055,0.3055,0.3059,0.3055,0.3017,0.3011,0.304,0.3042,0.3037,0.3001,0.2988,0.2984,0.2924,0.2973,0.297,0.2968,0.2967,0.2817,0.2815,0,0,0,0,0,0,0.3109,0.3101,0.3035,0.3033,0.3084,0.3056,0.3052,0.3035,0.3012,0.301,0.3036,0.3039,0.2993,0.2988,0.2983,0.2915,0.297,0.2967,0.2965,0.2818,0.2816,0.2814,0,0,0,0,0,0,0.3111,0.3103,0.3037,0.3068,0.306,0.3053,0.3034,0.3034,0.3021,0.3009,0.3007,0.3025,0.2995,0.2987,0.2942,0.2913,0.2965,0.2962,0.2821,0.2818,0.2815,0.2779,0,0,0,0,0,0,0.3113,0.3103,0.3083,0.3067,0.3058,0.2998,0.3032,0.3032,0.3016,0.3019,0.2998,0.2996,0.2995,0.2947,0.2939,0.2909,0.2959,0.2823,0.2819,0.2816,0.2783,0.2775,0.2769,0,0,0,0,0,0.3116,0.3073,0.3082,0.3074,0.3033,0.2997,0.2991,0.2994,0.3014,0.2992,0.2985,0.2996,0.2919,0.2942,0.2933,0.2902,0.2825,0.282,0.2816,0.2786,0.2777,0.2769,0,0,0,0,0,0,0.3083,0.3071,0.308,0.3031,0.3015,0.3001,0.2974,0.2984,0.296,0.2964,0.2966,0.2961,0.2914,0.2904,0.2931,0.2847,0.2875,0.2868,0.2855,0.2846,0.2839,0.2841,0.2956,0,0,0,0,0,0.3071,0.3044,0.3035,0.2992,0.2984,0.298,0.2965,0.2969,0.2951,0.2943,0.2932,0.2913,0.2885,0.2865,0.2838,0.2783,0.2777,0.2757,0.275,0.2745,0.2738,0.2707,0.2697,0.28,0.28,0.28,0,0,0.3043,0.3034,0.3016,0.2985,0.2973,0.2944,0.2974,0.2942,0.292,0.2938,0.2894,0.2886,0.2865,0.2814,0.2791,0.2804,0.2709,0.2739,0.2735,0.2731,0.2701,0.2691,0.2683,0.2797,0.2798,0.2798,0,0,0.2978,0.2969,0.2932,0.2921,0.2903,0.2901,0.2893,0.2877,0.2873,0.283,0.2843,0.2816,0.2767,0.2751,0.2736,0.2668,0.2677,0.2659,0.2621,0.2591,0.2583,0.2575,0.2549,0.2539,0.2653,0.2653,0.2653,0,0.2945,0.2904,0.2912,0.2879,0.2864,0.2882,0.2844,0.2831,0.2805,0.2793,0.281,0.2749,0.2736,0.2681,0.2664,0.2653,0.2641,0.266,0.2584,0.2577,0.257,0.2544,0.2534,0.2651,0.2651,0.2651,0.2651,0,0.2864,0.2835,0.2807,0.2783,0.2766,0.273,0.2731,0.2712,0.2718,0.2714,0.267,0.2656,0.2626,0.2614,0.2618,0.2559,0.2568,0.2584,0.2611,0.2558,0.2533,0.2524,0.2647,0.2648,0.2649,0.265,0,0,0.2773,0.2756,0.2746,0.2735,0.2718,0.2694,0.266,0.2633,0.2616,0.2598,0.2567,0.2526,0.2541,0.2525,0.2528,0.2502,0.2446,0.2521,0.252,0.2505,0.2378,0.2363,0.2352,0.2454,0.2452,0.2451,0.2379,0,0.2705,0.2646,0.2653,0.2595,0.2568,0.2586,0.2555,0.2541,0.2537,0.2512,0.2507,0.2477,0.2501,0.2491,0.2466,0.2458,0.242,0.2464,0.2422,0.242,0.2424,0.234,0.2324,0.2257,0.2369,0.2368,0.2367,0,0.2617,0.2598,0.2538,0.2526,0.2514,0.2487,0.2463,0.244,0.2423,0.2422,0.2405,0.2413,0.2376,0.2408,0.2356,0.2385,0.2369,0.2363,0.2361,0.2354,0.2388,0.2328,0.2236,0.2224,0.2352,0.2354,0.2355,0,0.2554,0.2513,0.2472,0.2463,0.2448,0.2428,0.242,0.2406,0.239,0.2369,0.2358,0.2332,0.2317,0.2296,0.2296,0.2319,0.2243,0.2274,0.2239,0.2238,0.2218,0.2219,0.2119,0.2214,0.2214,0.2214,0.2214,0,0.2475,0.2437,0.2444,0.2418,0.2376,0.2384,0.2342,0.2336,0.2324,0.2296,0.2311,0.2284,0.2288,0.2261,0.2261,0.2217,0.2211,0.2207,0.2207,0.2204,0.2204,0.219,0.2194,0.2211,0.2212,0.2212,0.2213,0,0.2395,0.2399,0.2355,0.2345,0.2342,0.2311,0.2302,0.2277,0.2276,0.2241,0.2233,0.223,0.2199,0.2199,0.2163,0.2163,0.2108,0.2115,0.2114,0.2114,0.2077,0.2079,0.1962,0.1947,0.2054,0.2053,0.2052,0,0.2343,0.2315,0.2303,0.2287,0.2279,0.2252,0.2236,0.2244,0.2226,0.2206,0.2183,0.2154,0.2131,0.208,0.2073,0.2045,0.2049,0.2011,0.2045,0.2043,0.2045,0.2046,0.2042,0.2002,0.2001,0.2,0.1999,0,0.2249,0.2253,0.223,0.2208,0.2189,0.2172,0.2156,0.2141,0.2147,0.2126,0.2096,0.2078,0.2043,0.2012,0.1986,0.1977,0.1987,0.199,0.1979,0.1974,0.1973,0.197,0.2092,0.1991,0.1992,0.1992,0.1993,0.1993,0.2179,0.2155,0.2143,0.2117,0.2107,0.2092,0.2068,0.2065,0.2041,0.2013,0.202,0.1985,0.1969,0.1936,0.1924,0.1896,0.1909,0.1895,0.189,0.1886,0.1881,0.1981,0.1891,0.1892,0.1892,0.1892,0.1892,0,0.2084,0.2078,0.2055,0.2033,0.2012,0.2029,0.2013,0.1993,0.1964,0.195,0.1927,0.1892,0.1864,0.1856,0.1828,0.1807,0.1811,0.1799,0.1798,0.1796,0.1872,0.1882,0.1796,0.1796,0.1796,0.1796,0.1796,0.1796,0.2032,0.199,0.1993,0.1946,0.1941,0.1908,0.1897,0.1883,0.1872,0.1832,0.181,0.1806,0.1794,0.1766,0.174,0.1738,0.1726,0.1711,0.171,0.1781,0.179,0.1799,0.1809,0.1709,0.1709,0.1636,0.1636,0.1635]}]]